COSMOS 1691 DEB, 43315

Orbit data source: Space-Track

COSMOS 1691 DEB, 43315 is space debris in LEO originally from a launch on Wed, 09 Oct 1985 UTC launched from the Plesetsk Missile And Space Complex (PKMTR). Debris objects in space refer to the collection of defunct objects orbiting the Earth. Examples of debris include non-operational satellites, rocket bodies, and fragments generated from explosions, collisions, or faulty payload assembly.

Loading next visibility...
Identifier
43315, 1985-094Z
Orbit
LEO
Country
Flag of CISCIS
Related business
Manufacturer
Unknown
Mission
Spacecraft
Bus & Motor
Unknown
Mass
Unknown
Launch date (UTC)
1985-10-09 (40 years ago)
Launch vehicle
Unknown
Launch site
Plesetsk Missile And Space Complex (PKMTR)
Object type
Payload
Rocket body
Debris
Shape & HBR
Unknown shape, 0.1 m
Radar Cross Section
Small (<0.1 m²)

Expand to show TLE details & history
Last TLE update: 15 hours ago

TLE from 15 hours ago
0 COSMOS 1691 DEB
1 43315U 85094Z   26036.99101597  .00000213  00000-0  10287-2 0  9996
2 43315  82.5596 240.3579 0024700 272.4581  87.3686 12.69208466565205
Epoch: 2026-02-05T23:47Z
TLE epoch observation values (Epoch: 2026-02-05T23:47:03.779Z)
Latitude
-0.00006°
Longitude
107.45684°
Altitude
1,387.072 km
Speed
7.166 km/s
True Right ascension
16h 01m 25s
True Declination
0° 00' 00"
Sunlit
Object was in daylight at epoch
Visualization orbit readout
Latitude
Unknown
Longitude
Unknown
Altitude
Unknown
Speed
Unknown
Apparent Right ascension
Unknown
Apparent Declination
Unknown
Sunlit
N/A
Visualization observer readout
Local Sidereal Time
17:08:59
Azimuth
Unknown
Elevation
Unknown
Doppler factor
Unknown
Orbital elements
Apogee altitude
1,401.646 km
Perigee altitude
1,363.309 km
Semi-major axis
7,760.615 km
Eccentricity
0.00247
Inclination
82.5596°
RAAN
240.3579°
Arg. of periapsis
272.4581°
True anomaly
87.65138°
Mean anomaly
87.3686°
Eccentric anomaly
87.50999°
Mean motion
3.17467 °/min
Orbital period
113.4 mins
BSTAR
0.0010287
Loading maneuver chart data...
Computing Atmospheric mass density...
Loading historical data...
Loading historical data...
Loading historical data...
Loading historical data...
Loading historical data...
Loading historical data...
Loading historical data...

Documentation

Showing up to 5 results
|